COSMOS 1275 DEB, 12674

Orbit data source: Space-Track

COSMOS 1275 DEB, 12674 is space debris in LEO originally from a launch on Thu, 04 Jun 1981 UTC launched from the Plesetsk Missile And Space Complex (PKMTR). Debris objects in space refer to the collection of defunct objects orbiting the Earth. Examples of debris include non-operational satellites, rocket bodies, and fragments generated from explosions, collisions, or faulty payload assembly.

Loading next visibility...
COSMOS 1275 DEB details
Identifier
12674, 1981-053AE
Orbit
LEO
Last TLE update22 hours ago
Origin
Flag of CISVMF (CIS)
ManufacturerUnknown
MissionSpacecraft
Bus & MotorUnknown
MassUnknown
Launch date (UTC)
1981-06-04 (44 years ago)
Launch vehicleUnknown
Launch site
Plesetsk Missile And Space Complex (PKMTR)
Object type
Payload
Rocket body
Debris
Shape & HBRUnknown
Radar Cross SectionMedium (>0.1 m² and <1 m²)

Expand to show TLE details & history

TLE from 22 hours ago
0 COSMOS 1275 DEB
1 12674U 81053AE  24360.59087737  .00001364  00000-0  13786-2 0  9999
2 12674  82.9358  45.5914 0101639  45.7989 105.3517 13.74252967165827
Epoch: 2024-12-25T14:10Z
Definitive object data (Epoch: 2024-12-25T14:10:51.804Z)
Latitude27.54083°
Longitude-85.39284°
Altitude1,008.229 km
Speed7.34 km/s
True Right ascension14h 47m 37s
True Declination27° 24' 17"
Sunlit
Object was in daylight at TLE epoch
Visualization TLE readout
Latitude-50.86097°
Longitude88.90925°
Altitude1,009.093 km
Speed7.344 km/s
Apparent Right ascension00h 48m 22s
Apparent Declination-48° 05' 31"
Sunlit
Object is in daylight
Visualization observer readout
Local Sidereal Time11:16:40
Azimuth235.914° WSW
Elevation-71.689°
Doppler factor1
Orbital elements
Apogee altitude1,056.294 km
Perigee altitude906.689 km
Semi-major axis7,359.628 km
Eccentricity0.0101639
Inclination82.9358°
RAAN45.5914°
Arg. of periapsis45.7989°
True anomaly106.471°
Mean anomaly105.3517°
Eccentric anomaly105.91174°
Mean motion3.43763 °/min
BSTAR0.0013786
Orbital period104.72 mins
Loading maneuver chart data...
Loading historical data...
Loading historical data...
Loading historical data...
Loading historical data...
Loading historical data...
Loading historical data...
Loading historical data...

COSMOS 1275 DEB Visibility forecast

Observer location: undefined°, undefined

Span
Click to sort rows by Start time (UTC) header in descending order
Start Az.
Max El. time (UTC)
Max El. Az.
Max El.
End time (UTC)
End Az.
11 mins2024-12-26 14:29:14.633Z7.628° NNE2024-12-26 14:34:14.633Z66.914° ENE34.851°2024-12-26 14:40:14.633Z147.937° SSE
8 mins2024-12-26 16:16:14.633Z319.305° NNW2024-12-26 16:20:14.633Z269.213° W23.97°2024-12-26 16:24:14.633Z224.981° SW
9 mins2024-12-27 04:01:14.633Z192.838° SSW2024-12-27 04:05:14.633Z285.864° WNW44.383°2024-12-27 04:10:14.633Z3.609° NNE
|